This is the latest recevied weather packets stored in our database for station/object IQ5KG. If no packets are shown the sender has not sent any weather packets the latest 10 day(s).
| Time | Temp. | Humidity | Pressure | Rain* | Wind** | Luminosity | Snow |
|---|---|---|---|---|---|---|---|
| 1777175415 | 10.56° C | 88% | 1017.9 hPa | 0 mm | - | - | - |
| 1777174514 | 10.56° C | 88% | 1017.9 hPa | 0 mm | - | - | - |
| 1777173613 | 11.11° C | 87% | 1017.8 hPa | 0 mm | - | - | - |
| 1777172713 | 10.56° C | 86% | 1017.9 hPa | 0 mm | - | - | - |
| 1777171814 | 10.56° C | 85% | 1017.9 hPa | 0 mm | - | - | - |
| 1777170914 | 10.56° C | 84% | 1017.8 hPa | 0 mm | - | - | - |
| 1777170014 | 10.56° C | 84% | 1017.8 hPa | 0 mm | - | - | - |
| 1777169113 | 10.56° C | 84% | 1018 hPa | 0 mm | - | - | - |
| 1777168213 | 10.56° C | 84% | 1018 hPa | 0 mm | - | - | - |
| 1777167313 | 10.56° C | 83% | 1017.9 hPa | 0 mm | - | - | - |
| 1777166413 | 11.11° C | 81% | 1017.8 hPa | 0 mm | - | - | - |
| 1777165513 | 11.11° C | 79% | 1018 hPa | 0 mm | - | - | - |
| 1777164612 | 11.67° C | 79% | 1018 hPa | 0 mm | - | - | - |
| 1777163712 | 11.67° C | 79% | 1018.1 hPa | 0 mm | - | - | - |
| 1777162812 | 11.67° C | 84% | 1018.1 hPa | 0 mm | - | - | - |
| 1777161912 | 11.67° C | 84% | 1018.4 hPa | 0 mm | - | - | - |
| 1777161012 | 11.67° C | 83% | 1018.3 hPa | 0 mm | - | - | - |
| 1777160112 | 11.67° C | 82% | 1018.3 hPa | 0 mm | - | - | - |
| 1777159213 | 11.67° C | 83% | 1018.6 hPa | 0 mm | - | - | - |
| 1777158312 | 11.67° C | 85% | 1018.4 hPa | 0 mm | - | - | - |
| 1777157412 | 11.67° C | 86% | 1018.4 hPa | 0 mm | - | - | - |
| 1777156511 | 11.11° C | 84% | 1018.4 hPa | 0 mm | - | - | - |
| 1777155612 | 11.11° C | 88% | 1018.3 hPa | 0 mm | - | - | - |
| 1777154711 | 12.78° C | 92% | 1018.3 hPa | 0 mm | - | - | - |
| 1777153811 | 12.78° C | 92% | 1018.1 hPa | 0 mm | - | - | - |
* Rain latest hour (hover to see other rain measurements)
** Current wind speed in m/s (hover to see current wind gust speed)